Pittsburgh, PA

8:56 PM EST on December 06, 2019 (GMT -0500)
Pittsburgh International

Weather History for KPIT - October, 2019

Change the Weather History Date:

Sunday, October 13, 2019

  Actual Average Record
Temperature  
Mean Temperature 50 °F 54 °F  
Max Temperature 64 °F 64 °F 85 °F (1969)
Min Temperature 34 °F 44 °F 26 °F (1988)
Degree Days  
Heating Degree Days 16 12  
Month to date heating degree days 86 129  
Since 1 July heating degree days 94 243  
Cooling Degree Days 0 0  
Month to date cooling degree days 37 6  
Year to date cooling degree days 934 734  
Moisture  
Dew Point 35 °F    
Average Humidity 61    
Maximum Humidity 96    
Minimum Humidity 29    
Precipitation  
Precipitation 0.00 in 0.07 in 1.22 in (1885)
Month to date precipitation 1.97 0.95  
Year to date precipitation 42.06 30.77  
Snow  
Snow 0.00 in 0.00 in T in (1907)
Month to date snowfall 0.0 0.0  
Snow Depth 0.00 in    
Sea Level Pressure  
Sea Level Pressure 30.03 in    
Wind  
Wind Speed 4 mph ()    
Max Wind Speed 14 mph    
Max Gust Speed 18 mph    
Visibility 10.0 miles    
Events      
T = Trace of Precipitation, MM = Missing Value Source: Averaged Metar Reports

Daily Weather History Graph

Daily Weather History Graph

Search for Another Location

Airport or City:

Astronomy

Oct. 13, 2019 Rise Set
Actual Time 7:29 AM EDT 6:44 PM EDT
Civil Twilight 7:02 AM EDT 7:11 PM EDT
Nautical Twilight 6:30 AM EDT 7:43 PM EDT
Astronomical Twilight 5:58 AM EDT 8:14 PM EDT
Moon 7:06 PM EDT (10/13) 7:01 AM EDT (10/13)
Length of Visible Light 12h 09m
Length of Day
11h 14m
Full, 100% of the Moon is Illuminated
Oct 13
Full
Oct 13
Full
Oct 21
Last Quarter
Oct 27
New
Nov 4
First Quarter

Hourly Weather History & Observations

Time (EDT) Temp. Windchill Dew Point Humidity Pressure Visibility Wind Dir Wind Speed Gust Speed Precip Events Conditions
12:51 AM 39.0 °F 35.7 °F 34.0 °F 82% 30.12 in 10.0 mi South 4.6 mph - N/A   Clear
1:51 AM 39.9 °F 37.8 °F 34.0 °F 79% 30.12 in 10.0 mi SSE 3.5 mph - N/A   Clear
2:51 AM 37.0 °F 32.4 °F 34.0 °F 89% 30.11 in 10.0 mi SSE 5.8 mph - N/A   Clear
4:51 AM 39.0 °F 36.8 °F 36.0 °F 89% 30.08 in 10.0 mi SSE 3.5 mph - N/A   Partly Cloudy
5:51 AM 37.0 °F - 35.1 °F 93% 30.09 in 10.0 mi Calm Calm - N/A   Partly Cloudy
6:51 AM 36.0 °F - 34.0 °F 93% 30.10 in 10.0 mi Calm Calm - N/A   Partly Cloudy
7:51 AM 35.1 °F 32.2 °F 34.0 °F 96% 30.11 in 10.0 mi South 3.5 mph - N/A   Partly Cloudy
8:51 AM 39.0 °F 36.8 °F 37.0 °F 93% 30.11 in 10.0 mi SSE 3.5 mph - N/A   Partly Cloudy
9:51 AM 45.0 °F 41.8 °F 39.9 °F 82% 30.10 in 10.0 mi South 5.8 mph - N/A   Partly Cloudy
10:51 AM 50.0 °F - 39.9 °F 68% 30.10 in 10.0 mi SSW 4.6 mph - N/A   Scattered Clouds
11:51 AM 53.1 °F - 37.0 °F 55% 30.08 in 10.0 mi SSW 5.8 mph - N/A   Mostly Cloudy
12:51 PM 55.9 °F - 35.1 °F 45% 30.04 in 10.0 mi South 8.1 mph - N/A   Mostly Cloudy
1:51 PM 60.1 °F - 30.0 °F 32% 30.00 in 10.0 mi South 9.2 mph - N/A   Scattered Clouds
2:51 PM 61.0 °F - 35.1 °F 38% 29.98 in 10.0 mi South 8.1 mph - N/A   Scattered Clouds
3:51 PM 63.0 °F - 37.9 °F 40% 29.96 in 10.0 mi SSE 5.8 mph - N/A   Scattered Clouds
4:51 PM 64.9 °F - 33.1 °F 31% 29.94 in 10.0 mi South 8.1 mph - N/A   Partly Cloudy
5:51 PM 63.0 °F - 30.0 °F 29% 29.95 in 10.0 mi South 8.1 mph - N/A   Partly Cloudy
6:51 PM 59.0 °F - 32.0 °F 36% 29.95 in 10.0 mi South 8.1 mph - N/A   Partly Cloudy
7:51 PM 55.0 °F - 32.0 °F 42% 29.95 in 10.0 mi South 5.8 mph - N/A   Clear
8:51 PM 54.0 °F - 33.1 °F 45% 29.96 in 10.0 mi South 4.6 mph - N/A   Clear
9:51 PM 53.1 °F - 34.0 °F 48% 29.96 in 10.0 mi SSW 3.5 mph - N/A   Clear
10:51 PM 52.0 °F - 33.1 °F 49% 29.96 in 10.0 mi SW 4.6 mph - N/A   Partly Cloudy
11:51 PM 50.0 °F - 34.0 °F 54% 29.96 in 10.0 mi SSW 4.6 mph - N/A   Partly Cloudy